Content
SEND FEEDBACK

Daily
Averages
Monthly
Summary
Belarus

VITEBSK, BELARUS


Home > Europe > Belarus
Elevation: 577 feet     Latitude: 55 10N     Longitude: 030 08E

WEATHER
 
SELECT A DAY
Number of Records: 94,659;   Date Range: 3/5/97 - 10/22/14
 
SHARE

PRINT THIS DATA

[ ← Previous Day ]
WEATHER ALMANAC - JANUARY 31, 2013
[ Next Day → ]
[ °C ]   °F
Weather ElementAverageHighLow
Temperature31.6 °F35 °F (3:00 pm)28.4 °F (8:00 am)
Dewpoint30.7 °F34 °F (3:00 pm)27 °F (3:00 am)
Humidity95.8 %100 % (8:00 am)87 % (9:00 pm)
Barometer29.36 in29.47 in (3:00 am)29.33 in (8:00 am)
Wind Speed8.7 mph15.7 mph (8:00 am)
Wind Gust24.6 mph (8:00 am)
Weather ElementAverage
Visibility1.4 mi
Wind DirectionSSW (192.3 °)

Weather ElementTotal
Precipitation---
Heating Degree Days33.3 (Base 65)
Averaged from 26 records on January 31, 2013
WEATHER CONDITIONS BREAKOUT
WIND DIRECTION BREAKOUT
WEATHER BY HOUR - JANUARY 31, 2013
[ °C ]   °F
Local TimeTemperatureDewpointHumidityBarometerVisibilityWind DirectionWind SpeedGust SpeedPrecipitationEventsConditions
3:00 AM29.0 °F27.0 °F90 %29.47 in1.0 miSouth (170°)11.2 mphSnowSnow
6:00 AM29.0 °F28.0 °F95 %29.40 in0.0 miSouth (190°)11.2 mphSnowSnow
8:00 AM28.4 °F28.4 °F100 %29.33 in1.4 miSouth (170°)15.7 mph24.6 mphSnowLight Snow
9:00 AM30.0 °F29.0 °F93 %29.39 in1.0 miSouth (180°)8.9 mphSnowSnow
9:00 AM28.4 °F28.4 °F100 %29.33 in1.0 miSouth (180°)13.4 mph20.1 mphSnowSnow
9:40 AM28.4 °F28.4 °F100 %29.33 inSouth (180°)13.4 mph20.1 mphSnowLight Snow
10:00 AM30.2 °F28.4 °F93 %29.33 inSouth (180°)13.4 mph20.1 mphSnowLight Snow
10:07 AM30.2 °F28.4 °F93 %29.33 inSouth (180°)6.7 mph15.7 mphLight Freezing Drizzle
11:00 AM30.2 °F30.2 °F100 %29.33 inSouth (180°)8.9 mph15.7 mphLight Freezing Drizzle
11:15 AM30.2 °F30.2 °F100 %29.33 inSouth (180°)8.9 mph15.7 mphOvercast
12:00 PM32.0 °F31.0 °F96 %29.39 in1.0 miSouth (190°)6.7 mphMist
12:00 PM32.0 °F30.2 °F93 %29.36 in1.2 miSouth (190°)8.9 mphOvercast
12:22 PM32.0 °F30.2 °F93 %29.36 in0.8 miSouth (190°)8.9 mphSnowSnow
1:00 PM32.0 °F32.0 °F100 %29.36 in1.1 miSouth (190°)6.7 mphRain-SnowSnow
1:25 PM32.0 °F32.0 °F100 %29.36 in2.2 miSouth (190°)6.7 mphLight Drizzle
1:40 PM32.0 °F32.0 °F100 %29.36 in0.7 miSouth (190°)6.7 mphDrizzle
1:45 PM32.0 °F32.0 °F100 %29.36 in0.4 miSouth (190°)6.7 mphFogFog
2:00 PM32.0 °F32.0 °F100 %29.36 in0.4 miSSW (200°)6.7 mphFogFog
2:35 PM32.0 °F32.0 °F100 %29.36 in0.8 miSSW (200°)6.7 mphOvercast
3:00 PM33.8 °F32.0 °F93 %29.36 inSW (220°)8.9 mphOvercast
3:00 PM35.0 °F34.0 °F96 %29.40 in2.0 miSW (220°)6.7 mphFogLight Fog
3:20 PM33.8 °F32.0 °F93 %29.36 inSW (220°)8.9 mphOvercast
3:35 PM33.8 °F32.0 °F93 %29.36 inSW (220°)8.9 mphOvercast
4:00 PM33.8 °F32.0 °F93 %29.36 inSSW (210°)6.7 mphMostly Cloudy
6:00 PM35.0 °F33.0 °F90 %29.39 in4.0 miSSW (210°)4.5 mphRainLight Rain
9:00 PM35.0 °F33.0 °F87 %29.34 in4.0 miSouth (180°)4.5 mphMist
Hourly data recorded from UMII, located miles away from Vitebsk, Belarus







STORIES FROM OUR PARTNERS